{"data":{"norad_id":25160,"epoch":"2026-05-25T03:15:43.613280Z","epoch_age_seconds":56551,"freshness":"FRESH","line1":"1 25160U 98007D   26145.13592145  .00000032  00000+0  71190-4 0  9992","line2":"2 25160 108.0112 285.7788 0061899 174.1177 358.6652 14.22477549467237","mean_motion":14.22477549,"eccentricity":0.0061899,"inclination_deg":108.0112,"raan_deg":285.7788,"arg_perigee_deg":174.1177,"mean_anomaly_deg":358.6652,"bstar":7.119e-5,"rev_number":46723,"period_min":101.23182619032,"perigee_km":772.44899047416,"apogee_km":861.52317521517,"semimajor_km":7195.1230828447,"source":"CELESTRAK","updated_at":"2026-05-25T13:37:54.967896Z"}}